TimeMST,TemperatureF,Dew PointF,Humidity,Sea Level PressureIn,VisibilityMPH,Wind Direction,Wind SpeedMPH,Gust SpeedMPH,PrecipitationIn,Events,Conditions,WindDirDegrees,DateUTC
12:53 AM,39.9,26.1,58,29.95,10.0,Calm,Calm,-,N/A,,Overcast,0,2012-12-06 07:53:00
1:53 AM,39.9,26.1,58,29.94,10.0,Calm,Calm,-,N/A,,Overcast,0,2012-12-06 08:53:00
2:53 AM,42.1,30.9,65,29.94,10.0,East,4.6,-,0.00,,Overcast,90,2012-12-06 09:53:00
3:53 AM,41.0,32.0,70,29.95,10.0,Calm,Calm,-,0.00,Rain,Light Rain,0,2012-12-06 10:53:00
4:53 AM,41.0,35.1,79,29.96,10.0,South,4.6,-,0.00,,Overcast,170,2012-12-06 11:53:00
5:53 AM,39.0,36.0,89,29.96,10.0,South,3.5,-,0.00,,Overcast,180,2012-12-06 12:53:00
6:53 AM,39.0,36.0,89,29.98,10.0,ENE,5.8,-,N/A,,Overcast,70,2012-12-06 13:53:00
7:53 AM,39.0,36.0,89,29.98,10.0,Calm,Calm,-,N/A,,Overcast,0,2012-12-06 14:53:00
8:53 AM,43.0,37.0,80,29.97,10.0,Calm,Calm,-,N/A,,Mostly Cloudy,0,2012-12-06 15:53:00
9:53 AM,46.9,37.0,68,29.98,10.0,Calm,Calm,-,N/A,,Clear,0,2012-12-06 16:53:00
10:53 AM,50.0,37.9,63,29.96,10.0,ENE,4.6,-,N/A,,Clear,70,2012-12-06 17:53:00
11:53 AM,52.0,39.0,61,29.94,10.0,NNW,4.6,-,N/A,,Partly Cloudy,340,2012-12-06 18:53:00
12:53 PM,55.9,37.0,49,29.91,10.0,NNE,6.9,-,N/A,,Mostly Cloudy,30,2012-12-06 19:53:00
1:53 PM,53.1,35.1,50,29.89,10.0,Variable,4.6,-,N/A,,Overcast,0,2012-12-06 20:53:00
2:53 PM,55.0,35.1,47,29.86,10.0,SW,4.6,-,N/A,,Partly Cloudy,230,2012-12-06 21:53:00
3:53 PM,55.0,33.1,43,29.86,10.0,Calm,Calm,-,N/A,,Clear,0,2012-12-06 22:53:00
4:53 PM,51.1,32.0,48,29.88,10.0,North,3.5,-,N/A,,Clear,350,2012-12-06 23:53:00
5:53 PM,43.0,30.9,62,29.91,10.0,Variable,3.5,-,N/A,,Clear,0,2012-12-07 00:53:00
6:53 PM,41.0,32.0,70,29.92,10.0,SE,6.9,-,N/A,,Clear,140,2012-12-07 01:53:00
7:53 PM,41.0,30.9,67,29.92,10.0,SE,5.8,-,N/A,,Clear,140,2012-12-07 02:53:00
8:53 PM,37.0,28.9,73,29.94,10.0,Calm,Calm,-,N/A,,Clear,0,2012-12-07 03:53:00
9:53 PM,35.1,28.0,76,29.95,10.0,Calm,Calm,-,N/A,,Scattered Clouds,0,2012-12-07 04:53:00
10:53 PM,32.0,27.0,82,29.95,10.0,NW,4.6,-,N/A,,Scattered Clouds,310,2012-12-07 05:53:00
11:53 PM,35.1,28.9,78,29.94,10.0,SSE,4.6,-,N/A,,Scattered Clouds,160,2012-12-07 06:53:00